Theta_e
323 325 326 326 324 323 324 323 323 324 325 326 326 326 326 325 325 326 326 326 326 326 326 325 324 323 323 323 322 322 322 323 323 324 325 324 325 326 327 325 317 313 316 316 313 312 312 312 312 312 313 316 320 321 321 321 322 322 325 325 322 323 322 321 321 320 320 320 318 319 319 320 319 318 316 316 318 318 319 321 323 324 325 333 337 336 337 336
322 325 325 325 324 323 323 323 323 324 325 326 326 326 326 325 325 326 326 326 326 326 326 325 324 324 323 323 323 323 323 323 323 324 324 323 323 325 326 327 321 314 318 316 313 313 311 312 312 311 312 316 320 320 321 322 320 322 325 323 322 323 320 318 318 317 320 320 318 319 320 320 319 318 317 317 319 318 319 319 322 324 325 332 338 337 337 336
318 323 325 325 324 323 322 322 322 323 325 325 326 326 326 325 325 325 325 326 326 326 326 325 325 324 324 324 323 323 323 323 323 324 324 322 322 324 325 328 323 316 318 316 314 313 311 311 311 311 311 313 318 319 320 320 319 320 323 324 323 321 318 316 316 315 318 319 318 319 320 320 319 318 317 317 318 318 319 318 321 324 324 332 338 336 336 336
315 318 324 326 324 323 322 322 322 323 324 325 325 326 326 326 325 325 325 325 325 326 326 325 325 324 324 324 324 324 323 323 324 324 323 322 323 322 325 328 325 318 317 314 313 313 311 311 311 311 312 312 315 319 319 319 319 320 321 322 321 319 317 315 315 315 317 318 318 319 319 319 318 317 317 317 319 317 318 318 318 322 324 331 338 336 336 336
313 314 322 326 324 323 322 322 322 322 323 325 325 325 326 326 325 325 325 325 325 326 326 326 325 324 324 323 324 323 323 327 327 323 323 322 322 322 325 328 324 320 317 312 312 312 311 311 311 311 312 312 315 318 318 318 319 319 319 319 318 318 317 314 314 314 316 318 318 319 319 319 318 317 317 318 318 318 317 318 318 320 324 330 337 337 335 335
313 313 320 325 324 324 322 322 321 322 323 324 324 325 325 325 325 325 325 325 325 325 325 326 325 324 324 322 323 322 325 329 323 320 325 323 322 323 326 326 323 319 315 312 311 312 312 311 311 312 311 311 314 317 317 317 318 318 319 317 316 317 315 313 314 314 316 317 318 319 319 318 318 317 317 318 317 317 316 319 321 321 324 329 334 336 335 335
314 313 320 325 324 324 323 322 321 322 323 323 324 324 324 324 324 325 325 325 325 325 325 325 325 324 323 321 321 321 323 326 318 318 324 324 323 324 326 328 324 317 313 312 311 312 312 311 311 312 311 311 313 315 316 317 317 317 318 317 315 315 314 313 313 313 314 316 317 318 318 318 318 316 317 318 316 317 317 319 323 323 324 328 332 333 334 334
315 313 317 324 324 324 322 322 321 322 322 322 323 323 324 324 324 325 325 325 325 325 325 325 325 323 321 319 319 320 322 324 319 316 321 324 324 325 327 327 324 317 313 312 312 313 312 311 311 311 311 311 312 314 315 317 317 316 317 316 314 313 313 312 312 313 313 314 315 317 318 317 316 316 317 318 317 319 319 319 323 324 324 328 332 332 333 334
316 314 314 322 325 323 322 322 321 322 322 322 322 322 323 324 324 325 325 325 325 325 324 324 324 322 320 319 320 323 323 323 320 314 318 323 324 326 327 325 324 320 316 314 311 312 312 311 312 312 312 312 312 312 314 317 316 316 317 316 314 313 312 312 312 312 313 313 314 316 317 315 314 314 316 316 317 320 322 321 322 325 325 328 331 333 334 334
317 316 314 321 324 323 322 322 322 322 322 322 322 322 323 324 324 325 325 325 324 324 324 324 323 319 318 320 323 325 323 321 322 316 317 321 321 323 324 324 323 320 317 315 313 312 311 312 312 312 312 312 312 312 314 315 315 315 316 315 314 313 313 313 313 312 313 313 313 314 316 315 313 314 315 315 318 321 322 322 322 324 325 326 328 330 332 333
317 316 315 320 323 322 322 322 322 321 322 322 321 321 322 324 325 324 324 323 323 324 324 323 320 317 318 319 323 324 319 320 323 318 317 317 315 318 321 323 322 319 317 315 313 312 311 312 312 312 312 312 312 312 314 314 314 315 315 315 314 313 313 313 313 312 313 313 313 315 315 314 314 315 315 315 318 319 320 321 321 322 323 325 326 328 329 330
317 316 315 321 323 322 322 322 322 321 321 321 321 321 322 324 324 323 323 322 322 323 323 322 317 316 318 319 323 320 316 320 323 319 316 315 315 316 320 322 321 318 316 313 312 312 311 312 312 312 312 311 311 312 314 313 314 315 315 315 314 314 313 313 313 313 313 313 313 314 315 315 315 315 315 315 316 317 317 319 320 320 322 325 326 327 329 328
317 317 316 321 322 321 322 321 321 321 321 320 320 321 322 323 323 323 322 321 322 322 323 319 314 316 319 321 320 315 314 317 319 317 315 316 318 318 319 321 320 318 317 313 311 312 311 311 311 311 311 311 311 312 313 313 314 314 315 315 315 315 314 314 314 313 314 313 313 314 315 317 316 315 315 315 315 316 316 318 319 318 320 324 327 329 331 329
316 318 318 321 322 321 322 321 320 320 320 320 320 320 322 322 322 322 320 321 321 322 322 318 314 317 320 320 316 313 314 314 315 316 315 316 317 318 319 319 317 316 315 313 312 312 312 312 311 311 311 312 312 312 312 313 313 314 314 315 317 316 315 315 314 314 314 314 313 314 315 317 316 315 315 314 314 315 316 317 319 318 318 322 327 330 332 331
316 319 320 322 322 321 321 320 320 319 319 320 320 320 321 321 321 321 320 320 321 321 321 318 316 319 320 317 312 312 314 313 314 315 314 316 316 315 316 315 314 312 312 312 311 312 312 311 311 311 311 311 312 312 313 313 313 313 314 315 318 317 315 315 314 314 315 313 312 313 314 316 315 315 315 315 314 314 314 316 318 319 318 320 327 329 329 329
318 321 322 321 321 321 321 320 320 319 319 319 319 320 320 320 320 320 320 320 320 321 319 318 318 320 321 319 312 311 313 314 314 313 313 314 314 314 312 311 312 310 311 311 310 310 310 310 311 312 311 311 312 312 313 314 314 314 314 315 317 316 315 315 314 315 315 313 312 313 314 316 315 314 314 314 314 314 314 315 316 317 317 319 324 327 327 328
320 322 322 321 321 321 320 319 320 319 319 319 319 319 319 320 319 319 319 320 320 319 318 318 318 318 319 315 312 312 313 313 313 312 312 311 312 313 310 310 310 310 310 310 310 310 310 311 312 313 312 311 311 312 314 315 314 315 314 315 316 314 315 315 315 316 316 314 313 313 314 315 315 314 314 314 314 314 314 315 315 316 317 319 322 324 324 326
322 322 322 321 320 320 319 319 319 318 318 318 319 319 319 319 318 318 319 318 318 318 316 315 315 320 321 313 311 314 312 313 313 311 311 311 311 311 310 311 310 309 309 309 310 310 310 312 311 312 312 311 311 311 314 316 315 314 314 314 315 314 314 315 315 316 316 315 314 314 313 315 314 314 314 313 314 314 314 315 315 316 317 319 320 321 321 322
322 322 321 320 320 319 319 319 318 318 318 318 318 318 318 317 317 317 318 318 318 317 317 314 315 323 323 314 313 314 312 313 313 311 311 311 310 311 311 311 310 309 310 310 311 310 312 313 312 313 313 311 310 311 313 315 314 315 316 314 314 315 314 315 315 315 316 315 315 315 313 313 313 314 314 313 314 314 314 315 315 316 317 318 319 320 321 321
321 321 320 320 319 319 319 318 318 318 318 318 317 316 316 317 318 318 318 318 318 319 318 315 316 320 316 314 314 313 313 314 313 311 311 311 310 311 311 310 311 311 310 312 313 311 312 314 313 312 312 312 311 311 312 314 314 314 316 315 314 316 314 314 315 314 315 315 315 316 315 314 315 315 316 314 314 315 315 315 316 317 318 318 319 319 321 321
321 320 320 319 319 318 318 317 317 317 316 316 316 315 316 317 319 319 319 319 318 319 317 314 317 317 314 313 313 312 313 313 313 312 310 311 311 311 311 311 312 311 311 313 314 312 312 314 314 312 312 312 311 312 312 313 314 313 315 315 314 316 314 314 315 313 314 315 316 316 316 315 316 316 316 315 314 314 314 314 315 317 318 319 319 320 321 320
320 320 319 319 319 318 317 317 317 316 315 315 315 315 315 316 316 317 319 320 319 319 316 314 316 315 312 313 312 312 312 311 312 312 310 311 311 311 312 311 311 312 313 313 313 314 314 314 314 312 312 313 313 312 311 313 315 315 316 315 314 316 316 314 314 313 313 314 316 318 318 316 316 317 316 316 314 314 314 315 316 316 316 316 317 319 321 320
320 320 319 318 318 317 317 317 316 315 315 315 315 315 315 315 315 316 318 320 319 316 312 314 316 314 311 312 312 312 311 310 312 312 311 311 311 312 312 311 311 313 313 312 312 314 315 313 314 314 312 313 314 312 312 313 314 316 316 314 315 318 317 315 315 314 313 313 316 318 318 317 316 317 318 317 315 314 315 315 316 318 317 316 317 319 320 320
320 319 318 318 317 317 317 316 315 315 314 314 315 314 314 316 316 316 316 317 316 312 311 315 316 313 312 312 312 312 311 311 312 312 311 311 312 311 312 311 312 313 313 311 312 313 314 313 315 317 313 313 314 313 314 313 313 317 318 316 317 319 319 318 316 313 313 315 316 315 314 315 314 315 316 316 317 315 316 317 316 318 319 319 321 322 321 320
319 318 318 317 317 317 316 315 315 314 314 314 315 314 314 315 316 315 313 314 314 311 311 315 315 312 312 312 312 313 312 311 312 313 311 311 312 311 312 312 312 313 312 312 312 313 313 310 312 315 314 314 314 313 315 316 312 314 319 319 317 317 320 321 318 314 313 316 318 314 314 317 316 315 315 314 316 316 315 317 316 317 320 321 323 325 326 326
318 318 318 317 317 316 315 315 314 314 314 314 314 314 313 314 314 314 313 313 313 312 312 314 313 312 312 312 312 312 312 311 312 312 311 311 312 312 312 312 312 313 312 311 313 314 311 308 311 315 315 317 316 314 316 318 313 311 319 322 318 320 324 323 320 317 314 317 320 317 317 318 316 315 316 316 315 317 316 317 317 316 319 322 321 322 326 328
318 317 317 316 316 316 315 315 314 313 314 314 314 314 314 314 312 312 313 314 313 312 311 311 312 313 313 312 311 312 313 312 312 311 311 311 312 311 312 312 312 313 312 312 314 315 310 310 314 316 316 318 316 314 316 316 313 315 324 327 321 321 327 326 323 319 317 319 321 319 317 317 318 317 318 319 317 318 318 318 320 319 318 320 320 319 321 323
318 317 316 316 316 315 314 314 313 313 314 313 313 314 314 314 311 312 312 312 313 312 310 310 310 312 313 311 311 312 312 313 313 312 310 310 310 310 312 312 312 313 313 312 315 316 312 313 316 316 317 318 316 317 323 318 314 321 326 326 322 322 325 326 323 320 320 322 320 320 317 317 320 320 318 319 316 317 319 318 319 318 317 319 318 319 319 320
317 316 316 316 315 314 314 314 313 312 312 312 313 314 313 312 311 313 312 310 311 311 310 310 309 311 312 311 312 312 311 312 313 311 309 310 309 309 311 312 311 314 313 314 317 317 314 313 315 316 316 318 317 320 326 324 317 322 324 323 323 324 323 322 321 318 318 320 320 322 319 316 321 320 315 318 316 317 319 316 317 318 318 318 319 321 321 320
317 316 316 316 315 314 313 313 313 312 312 312 313 313 312 311 312 312 311 311 311 310 309 309 310 311 312 311 312 312 311 312 311 310 310 310 309 308 311 312 312 315 317 320 320 314 311 310 314 318 314 315 317 316 321 324 321 321 323 323 322 320 320 320 320 317 318 321 320 322 320 316 320 320 315 318 319 317 318 315 317 320 319 320 322 324 324 324
316 316 316 315 314 314 313 313 312 312 312 312 313 312 311 312 311 310 311 312 313 311 309 310 311 312 312 311 312 312 311 312 310 310 310 310 310 309 312 314 314 318 320 322 320 314 311 310 314 317 311 312 317 315 317 320 320 322 322 320 320 318 317 317 317 317 320 322 318 319 321 319 320 319 314 317 317 316 317 314 317 320 322 324 324 323 322 323
316 316 315 315 314 313 314 313 312 312 312 312 312 311 311 310 308 310 312 312 313 312 310 311 312 312 312 312 313 312 312 313 311 311 311 310 310 309 311 314 315 317 316 319 320 318 316 313 314 315 311 313 318 316 316 316 317 322 320 318 320 320 318 318 319 320 320 320 315 314 318 320 320 316 314 316 315 315 316 314 316 320 323 325 323 322 321 320
316 316 315 314 314 313 313 312 312 312 312 312 310 310 312 308 308 312 312 311 313 313 311 311 312 312 312 313 313 312 314 314 311 311 311 311 311 311 312 314 315 315 315 317 319 319 319 316 314 316 313 313 316 315 314 314 315 318 318 319 321 319 317 318 319 320 320 318 315 314 317 320 319 316 316 317 313 314 317 318 322 322 323 326 323 322 322 321
316 315 314 314 313 313 313 312 312 312 311 311 310 311 312 308 309 312 312 312 313 312 310 311 312 312 312 312 313 313 314 314 312 311 312 312 311 311 312 313 314 314 315 317 317 317 318 317 314 317 316 314 316 317 317 316 314 316 318 321 321 318 318 319 319 321 324 320 314 314 318 320 318 317 318 317 315 316 316 319 323 323 322 323 322 321 322 322
316 315 314 313 313 313 312 312 311 311 311 311 311 311 311 309 309 311 312 313 312 311 310 311 312 312 312 313 313 312 314 315 313 311 312 312 311 312 311 311 313 314 314 316 316 314 316 317 316 316 317 316 317 320 320 315 313 316 320 321 322 321 321 321 318 319 321 321 318 317 320 321 318 317 316 317 318 317 315 318 319 320 322 323 323 323 323 322
315 314 313 313 313 312 312 311 311 310 311 311 311 311 311 309 309 311 313 313 311 311 311 311 312 312 312 313 313 313 314 315 314 313 313 312 312 312 312 312 312 313 313 315 317 315 315 318 315 314 316 315 315 318 319 316 315 316 318 320 321 323 324 321 317 315 315 317 321 320 319 318 315 315 316 317 320 319 316 317 316 317 320 323 325 326 326 325
314 314 313 312 312 312 312 311 311 310 311 311 310 311 312 311 311 313 313 312 311 311 311 311 312 311 311 312 313 314 315 316 314 313 314 313 313 313 312 313 313 312 314 315 316 316 317 318 315 315 317 314 313 317 317 316 317 316 318 319 317 319 321 317 316 318 316 316 318 319 318 317 314 317 320 316 318 319 316 314 315 315 318 322 326 327 328 329
314 313 313 312 312 312 311 311 310 310 313 313 311 312 312 313 314 313 312 312 312 311 311 311 312 312 311 311 313 314 315 315 314 314 314 313 314 314 311 313 313 312 313 315 317 318 319 320 315 313 315 314 314 318 315 315 317 316 318 319 318 320 319 315 315 317 317 316 316 317 318 316 315 316 317 316 318 319 317 315 315 316 318 321 324 325 328 330
313 313 314 312 312 312 311 311 311 311 313 313 312 312 313 314 316 314 312 312 312 312 312 313 312 312 311 311 313 315 315 314 314 314 315 314 315 315 312 313 314 313 313 314 318 320 319 323 319 313 313 315 315 315 314 315 315 314 315 315 318 321 319 318 317 315 316 317 317 317 316 317 320 317 314 316 318 317 317 318 317 317 319 320 320 324 329 330
313 314 315 312 312 311 310 310 311 311 313 313 312 312 313 316 317 314 313 313 313 313 313 314 313 312 312 313 314 315 314 315 314 314 316 315 314 315 313 313 314 314 314 315 319 319 316 322 324 315 312 315 316 316 316 315 312 313 315 314 315 317 316 317 319 317 316 317 317 316 315 318 321 318 315 314 315 319 321 322 321 320 320 320 321 326 331 329
313 315 315 312 311 311 310 311 312 312 313 312 311 314 316 317 316 314 315 315 315 316 315 314 314 312 314 315 315 315 314 315 315 314 316 315 314 315 315 314 315 314 315 316 319 320 316 318 321 316 314 316 318 317 317 316 315 314 314 314 314 315 317 318 318 318 316 315 316 315 317 325 324 317 319 316 314 319 322 321 321 318 316 317 321 324 327 327
314 315 314 312 311 310 310 312 312 311 312 312 313 316 317 316 315 314 316 315 316 318 316 314 315 313 315 315 314 315 314 315 316 315 315 315 314 316 316 315 314 313 314 316 318 321 321 320 319 316 316 316 315 315 313 313 318 317 315 317 315 314 318 318 316 319 318 315 315 313 317 327 327 319 320 318 314 315 316 315 317 316 313 313 316 319 322 323
315 314 313 311 311 310 310 312 312 311 311 312 315 318 316 314 315 316 317 316 315 318 316 315 315 314 315 315 314 315 314 313 316 315 315 316 315 316 316 315 314 313 314 317 318 319 321 321 320 317 316 315 314 314 313 313 317 318 316 318 317 313 315 317 319 322 322 318 316 314 314 318 324 324 323 320 318 318 315 312 314 316 316 315 314 317 320 320
313 312 312 311 311 310 310 312 312 312 312 312 314 317 316 315 316 316 316 316 315 317 317 316 315 315 316 315 315 315 313 313 316 315 314 316 317 318 315 313 314 313 313 315 315 315 317 319 320 319 319 318 316 316 316 316 316 316 316 315 315 315 316 319 319 318 320 323 321 317 316 317 323 327 322 319 323 326 320 314 314 317 319 318 317 317 319 321
313 313 313 311 311 311 312 312 312 312 312 313 314 316 316 316 318 317 316 316 315 315 316 317 317 317 318 317 316 315 313 315 317 316 316 318 319 321 318 313 314 313 313 316 316 314 318 319 318 319 319 318 318 317 317 318 315 316 319 318 315 318 319 317 318 316 318 323 321 317 317 316 317 318 317 317 320 323 320 314 314 315 315 317 319 319 320 321
313 314 313 312 312 312 312 313 313 312 312 313 314 315 315 316 318 319 317 316 316 315 317 319 319 319 319 318 318 317 314 316 319 317 318 320 319 320 320 316 315 316 320 322 317 315 321 319 315 316 316 315 316 318 318 318 315 315 319 320 317 319 319 316 317 318 317 320 320 318 318 316 314 314 315 317 318 320 319 316 315 316 316 319 322 321 321 322
309 313 313 313 313 312 312 312 314 313 312 313 313 314 314 315 316 316 317 318 318 317 317 318 317 318 318 317 318 317 314 317 320 318 319 321 318 317 318 319 320 321 322 320 316 318 322 318 315 317 317 316 318 320 318 317 317 316 317 319 318 319 319 318 318 317 317 317 316 317 319 317 315 314 314 316 319 320 320 318 316 317 321 323 322 321 321 319
305 309 310 312 313 313 313 312 313 314 313 312 313 313 314 315 314 314 317 319 319 317 318 318 316 317 317 317 317 318 316 318 320 319 320 319 316 315 316 318 318 317 317 315 317 320 319 316 317 317 316 318 318 319 319 317 317 317 317 317 318 318 319 319 317 316 317 317 315 316 319 318 315 314 314 315 318 319 319 319 316 316 321 323 320 320 320 317
302 304 306 309 311 313 312 312 313 314 313 312 313 313 313 314 313 313 316 318 317 317 316 316 316 317 317 317 316 317 318 318 318 318 319 316 314 316 317 316 314 314 315 315 318 319 316 316 318 316 315 318 318 320 323 321 318 318 318 317 317 317 317 317 316 315 316 316 315 315 317 316 314 314 315 315 318 319 317 317 315 315 320 322 320 320 320 318
301 303 305 308 312 313 312 312 313 314 314 312 312 313 312 313 313 313 315 315 315 316 315 315 316 317 317 318 317 317 317 317 318 319 317 314 313 315 316 315 314 314 314 315 316 316 316 317 318 317 316 317 318 321 325 324 322 320 320 320 319 318 318 316 315 315 315 315 315 315 316 315 313 314 315 316 318 318 317 316 315 316 320 321 320 320 320 320
296 297 300 306 312 313 312 312 313 314 313 312 312 313 312 312 312 313 315 315 314 314 314 315 317 317 318 318 317 317 318 318 320 318 315 314 313 314 315 315 313 314 316 317 316 315 317 318 317 317 317 317 317 320 321 320 320 318 318 321 321 321 319 317 315 315 315 315 315 316 316 314 312 314 315 316 317 317 317 316 315 316 319 320 321 322 323 321
295 296 298 304 310 312 313 313 313 314 314 312 312 313 312 313 312 313 315 317 317 316 314 315 317 316 316 317 317 318 321 322 321 318 316 316 314 315 318 316 312 313 316 316 315 314 316 318 318 317 317 316 318 320 318 317 316 315 316 317 318 318 318 317 316 316 315 315 316 316 314 313 313 314 314 314 315 316 316 315 314 317 320 321 320 321 321 319
Wind_Speed
37 44 44 42 44 42 41 40 39 41 40 39 38 37 36 34 33 30 29 27 24 23 23 22 22 20 19 17 16 15 14 13 11 12 12 16 22 19 12 8 6 2 7 6 6 11 12 12 9 3 3 2 1 1 2 2 1 0 2 2 3 5 3 2 3 4 5 6 6 9 9 8 8 4 3 3 3 5 5 5 7 9 8 5 12 24 28 27
34 42 45 42 44 42 41 40 39 40 39 39 38 36 36 35 34 31 28 27 25 23 23 22 21 20 20 19 17 16 15 14 12 14 18 21 22 20 16 12 8 2 6 6 6 11 9 10 13 10 3 1 1 1 2 2 2 2 2 2 4 3 1 3 4 4 4 8 8 8 8 6 9 7 4 5 5 6 6 6 7 8 6 4 13 23 25 25
33 37 45 43 43 43 42 41 40 39 39 38 38 36 36 35 34 32 29 27 26 24 23 23 22 21 20 19 18 17 15 10 8 13 21 22 21 21 17 13 11 4 4 5 4 7 8 9 14 13 4 2 2 2 2 2 2 3 2 2 4 0 2 5 7 5 4 8 9 7 7 5 9 8 3 5 7 7 6 6 8 8 7 6 12 20 22 22
38 34 41 44 43 44 42 41 41 40 39 38 37 37 35 35 34 32 30 29 27 24 24 24 24 22 21 20 18 18 12 4 5 13 23 24 23 22 16 14 14 9 0 2 3 5 10 9 10 10 4 4 4 4 3 3 2 2 3 2 3 3 3 5 6 5 6 4 8 7 6 5 9 7 5 7 7 6 7 7 9 9 12 11 10 17 20 20
43 36 39 45 45 45 43 42 41 40 40 38 37 37 35 35 34 33 31 30 29 26 24 25 25 23 22 20 18 18 11 0 5 13 25 26 25 22 17 15 14 13 7 1 2 4 10 8 6 6 3 4 4 3 3 5 2 1 4 2 3 4 3 4 5 5 6 2 5 8 6 5 7 6 6 8 6 4 3 5 10 11 14 15 13 16 17 17
46 40 40 47 46 44 45 42 41 40 40 39 37 36 35 35 34 33 31 30 30 28 26 25 26 25 22 20 20 18 9 2 1 6 22 26 24 22 18 17 16 14 11 5 2 2 6 6 4 2 2 5 5 4 4 5 4 1 5 2 3 4 3 3 3 4 6 2 5 7 5 5 6 4 5 7 4 3 2 2 4 10 18 21 18 16 14 14
46 43 40 47 48 45 45 43 41 40 39 39 37 35 35 35 35 33 32 31 30 29 28 26 27 25 22 22 19 11 7 7 3 2 18 26 23 22 20 21 20 15 13 9 5 2 3 6 5 3 3 5 6 6 5 5 5 4 4 2 3 4 4 3 2 3 5 4 2 3 5 5 6 4 4 6 3 6 4 5 6 13 21 22 17 14 14 15
46 45 40 45 49 46 45 43 42 40 39 39 37 36 35 34 34 33 32 31 30 30 29 28 28 25 25 24 14 5 6 11 7 4 14 25 22 23 22 23 23 17 16 14 10 6 4 6 8 5 3 6 6 7 4 5 5 7 4 3 2 3 4 2 3 1 3 3 3 2 6 5 4 2 3 7 5 7 6 6 7 13 17 15 14 13 12 14
45 44 41 45 50 48 45 44 43 41 39 38 37 36 34 34 33 33 32 31 30 30 29 30 28 26 27 21 10 7 9 14 11 2 11 24 25 25 25 25 25 20 16 15 13 9 4 6 8 6 4 5 6 7 5 2 3 6 4 4 4 3 4 2 3 2 1 1 2 2 5 4 3 1 3 8 6 8 7 7 6 9 11 10 11 12 12 12
44 43 41 43 48 49 46 45 43 42 40 38 37 36 34 34 33 33 33 31 30 28 29 29 27 28 26 15 9 7 7 14 17 5 9 23 27 28 28 27 27 22 15 12 11 9 9 10 8 5 5 4 4 4 5 3 3 3 3 6 4 4 4 1 3 4 1 1 1 3 4 4 3 1 3 6 8 9 8 7 6 7 8 9 9 10 12 13
45 44 43 43 48 49 46 45 43 42 40 38 37 36 35 34 33 34 32 30 28 27 27 27 27 31 23 11 9 6 5 13 20 13 10 19 27 29 30 29 28 24 16 10 11 16 17 15 10 2 4 2 3 2 2 3 4 2 5 6 4 4 4 1 3 5 2 2 3 4 2 4 3 2 4 3 8 10 9 8 7 7 7 8 9 9 10 12
47 47 45 45 49 50 46 45 44 42 40 38 36 35 35 34 33 33 31 29 27 25 26 26 31 31 15 8 8 5 6 10 17 16 11 18 26 26 26 27 27 26 19 14 15 24 22 15 10 4 3 2 2 1 2 2 3 2 3 3 4 4 3 4 4 4 3 2 4 2 1 1 3 7 6 5 6 7 9 8 8 7 7 7 8 8 7 11
49 48 46 45 49 50 48 45 44 42 40 38 37 36 35 34 33 31 30 28 25 25 24 26 33 24 7 6 6 5 6 9 14 14 12 20 24 22 22 22 22 23 20 18 17 20 20 15 9 5 4 3 2 2 3 2 2 2 3 2 4 3 3 6 5 5 3 1 3 1 1 4 8 13 9 8 7 6 7 8 8 7 7 7 7 6 6 9
50 47 47 49 51 50 48 46 43 42 40 38 37 36 35 33 32 31 28 26 24 24 22 25 29 16 4 4 6 6 6 8 14 15 16 21 21 20 19 18 17 17 17 17 13 11 15 15 8 5 4 2 1 2 0 0 1 1 3 3 2 2 3 6 6 7 4 1 2 2 1 5 5 9 9 9 9 9 7 7 8 7 7 7 7 7 6 7
50 46 45 49 53 51 48 46 43 41 39 38 37 36 34 32 31 29 27 25 23 23 21 23 22 9 3 3 6 11 9 8 12 15 18 22 22 18 16 18 17 15 15 15 10 7 10 10 5 3 2 1 1 1 0 2 2 3 3 2 3 3 2 4 5 7 5 1 4 3 2 5 2 4 7 7 8 9 8 7 8 8 8 7 7 7 7 7
49 47 46 49 52 50 48 46 43 41 39 37 36 35 34 32 30 28 25 23 22 22 20 17 16 8 4 4 7 12 10 7 11 14 16 20 22 18 18 18 15 13 12 11 9 6 8 8 2 2 2 1 2 1 2 3 3 3 4 3 4 4 2 3 3 5 4 4 5 4 2 3 1 4 5 4 6 7 7 7 9 8 8 8 7 7 7 7
49 49 49 53 54 51 49 46 42 41 39 38 36 35 34 30 30 27 23 23 22 22 17 11 13 7 3 4 7 9 8 9 14 16 16 15 16 20 21 13 9 11 8 7 7 4 7 6 0 0 2 2 3 3 3 4 3 3 4 3 4 6 4 3 1 2 4 4 5 6 4 4 3 6 6 4 6 6 6 7 8 8 8 8 7 7 7 7
51 50 51 53 53 52 49 45 43 42 41 40 37 36 34 31 30 27 24 25 21 17 10 6 11 6 3 8 8 9 14 16 18 17 16 13 14 21 19 10 9 11 8 4 4 4 5 4 2 2 3 3 4 4 4 4 5 4 4 4 4 7 7 5 2 3 7 5 5 7 6 8 6 6 6 6 7 7 7 7 7 7 8 8 8 7 8 8
51 51 54 53 51 51 49 47 45 44 44 43 40 39 35 29 24 22 23 24 16 10 6 9 14 5 2 11 11 11 20 22 18 16 16 14 15 17 11 9 12 11 8 4 4 6 5 3 3 5 4 5 6 7 6 5 4 6 7 6 5 5 5 4 1 1 5 4 5 7 7 10 9 6 6 7 8 8 8 7 7 7 7 7 8 7 8 8
50 50 56 55 52 50 49 49 47 48 49 47 46 37 24 19 13 10 14 15 12 7 4 12 16 3 3 11 12 15 21 21 14 12 17 17 16 14 6 7 10 7 7 7 5 5 4 4 4 5 6 7 9 9 8 5 4 3 6 8 7 4 2 2 2 1 1 2 6 7 7 9 8 8 8 8 8 8 8 8 8 7 7 7 7 8 8 8
50 50 54 55 55 52 52 52 49 52 51 52 49 23 11 16 9 9 15 11 12 9 4 15 17 5 5 13 19 22 16 11 10 11 18 20 16 13 6 6 8 5 7 8 6 2 3 6 6 7 9 7 10 11 9 5 4 6 0 4 6 5 2 2 2 1 1 1 4 7 8 9 8 8 7 8 9 9 9 10 9 9 8 7 7 8 8 7
51 51 54 55 55 54 55 54 53 54 50 50 38 9 11 15 1 11 19 7 11 13 4 17 18 7 8 14 21 25 14 9 11 10 15 18 12 9 6 7 9 5 6 7 6 4 4 6 6 9 10 4 5 10 10 5 2 4 3 0 4 3 3 2 2 1 1 1 2 2 4 8 8 8 7 8 9 9 10 11 10 10 10 8 9 8 8 8
54 53 55 55 55 56 56 56 55 52 45 44 26 7 17 15 6 25 19 6 8 10 5 16 17 9 10 10 14 17 13 12 11 9 14 16 9 7 8 8 10 7 8 9 7 5 4 5 5 5 7 5 2 4 6 3 1 2 2 1 1 1 3 1 0 1 1 1 1 4 4 6 6 7 7 8 9 8 9 12 11 10 11 11 10 9 9 10
58 57 56 56 57 55 56 57 52 44 40 41 27 12 19 20 22 34 15 6 9 4 3 15 13 8 9 9 13 11 8 10 10 10 16 15 7 6 8 9 10 8 8 10 9 7 5 3 1 1 5 7 4 2 4 3 3 4 3 2 2 1 3 2 2 3 3 1 1 3 5 6 5 7 8 8 10 10 9 11 11 10 10 10 9 9 11 11
61 60 58 58 57 56 60 52 38 36 35 33 28 16 19 24 22 20 8 6 8 0 1 12 9 8 9 10 13 10 8 9 7 11 17 15 9 7 6 7 7 8 10 12 9 7 5 2 0 3 4 5 5 4 4 5 3 3 5 6 3 1 4 6 4 3 2 2 2 2 1 5 5 9 10 8 9 11 10 10 11 11 10 9 9 9 9 10
61 61 61 60 58 61 53 31 27 37 29 23 32 23 17 23 18 10 4 4 5 3 6 10 6 10 13 10 10 8 8 6 3 14 22 15 9 5 6 5 1 5 11 10 6 3 2 1 1 6 6 4 4 3 5 6 3 3 3 5 5 4 6 7 5 3 2 3 2 3 3 5 3 5 8 7 10 11 9 10 11 10 9 9 9 9 8 8
61 59 64 60 62 63 37 16 31 35 18 23 38 26 14 19 15 6 2 3 4 6 7 5 4 12 14 11 13 8 7 6 4 11 18 12 6 1 3 5 2 3 8 6 3 1 3 2 2 5 6 5 5 3 4 7 4 3 3 3 4 7 6 7 6 3 2 0 2 1 2 3 5 5 5 1 6 7 7 8 9 8 8 10 11 10 9 9
63 61 64 61 66 61 29 23 35 22 19 39 41 22 15 16 10 3 2 5 5 5 6 3 3 10 10 10 14 5 5 12 7 6 10 8 4 1 2 7 6 4 4 6 5 1 3 5 6 7 6 4 5 2 2 5 4 3 1 3 2 3 5 6 6 3 1 3 2 3 2 1 5 5 3 0 3 5 6 8 10 10 10 10 11 11 11 11
64 65 63 63 65 48 26 30 30 14 29 49 33 16 13 12 6 1 2 6 4 4 7 5 4 9 9 9 13 6 6 10 5 4 8 6 2 1 2 6 7 6 4 4 5 0 0 4 5 8 7 4 5 2 2 2 3 3 2 5 5 4 3 3 3 3 2 2 4 5 4 3 5 5 4 2 4 6 6 8 9 10 12 11 10 10 10 9
62 64 62 64 55 35 24 27 26 23 36 41 26 16 13 8 4 4 5 6 4 5 6 5 5 10 14 12 12 10 8 5 4 7 8 6 3 0 0 2 4 6 4 5 4 1 0 0 0 3 3 3 6 3 2 3 3 3 3 5 5 4 5 3 1 2 1 2 4 5 6 6 4 5 5 4 4 6 7 6 5 4 8 9 7 7 8 7
61 60 63 62 47 31 22 18 26 36 37 33 25 16 10 4 3 6 8 5 5 6 6 7 9 12 18 16 11 13 10 5 8 12 9 6 5 3 3 3 3 5 3 3 4 2 2 2 0 1 1 2 6 4 3 3 3 3 3 4 3 3 4 3 2 2 1 4 3 3 1 4 4 4 4 3 1 3 4 2 1 2 4 4 4 5 5 5
63 60 63 57 40 28 19 19 34 41 37 36 27 11 6 5 4 5 6 5 6 7 8 13 16 16 18 16 12 13 10 7 9 13 12 9 7 7 7 6 5 4 4 3 3 1 2 2 1 2 3 2 4 4 3 4 2 3 3 5 4 1 2 1 1 2 3 4 2 2 3 2 5 5 7 10 7 3 4 3 3 5 5 4 5 5 5 4
62 61 59 48 34 23 19 29 40 37 34 36 21 5 4 7 8 7 7 6 7 10 12 14 18 19 17 15 11 12 10 8 10 11 11 10 8 7 8 7 8 6 4 5 4 3 2 1 1 2 1 2 3 4 3 1 1 4 5 5 4 3 2 2 2 2 4 3 3 3 1 2 4 4 9 14 14 9 3 5 4 6 6 6 6 5 5 4
60 60 53 42 29 18 23 39 42 36 33 25 12 6 8 8 8 9 8 6 5 11 14 13 17 18 16 13 10 12 9 7 12 12 10 10 8 9 10 10 12 8 4 5 4 5 4 2 2 3 1 2 3 1 2 6 5 5 5 4 4 4 2 3 3 2 4 2 3 3 1 3 3 3 7 10 10 5 3 4 3 3 4 5 5 4 5 5
59 57 45 35 25 16 28 41 40 38 29 13 7 8 10 10 9 10 9 6 6 11 15 16 17 16 13 11 10 13 8 5 11 11 9 11 10 10 10 10 14 10 6 7 4 5 7 3 1 1 2 2 3 3 2 5 4 2 3 4 2 3 2 2 2 2 3 0 2 2 2 4 4 5 8 7 6 5 4 4 4 4 4 5 5 5 6 6
52 47 35 28 24 19 31 40 38 36 22 9 9 8 8 9 8 9 8 8 8 12 17 17 14 13 11 8 9 14 9 6 12 9 7 10 9 10 11 9 13 14 9 7 3 3 6 2 3 3 2 2 1 3 3 2 2 1 3 4 3 3 5 3 1 0 2 2 3 3 2 5 3 6 9 8 7 6 6 6 6 7 6 6 6 6 6 6
40 33 24 22 28 25 31 40 39 31 14 6 10 8 8 7 6 7 8 9 11 14 17 13 10 12 13 9 10 15 12 8 11 9 7 9 8 11 14 10 12 16 11 6 2 2 6 2 3 2 2 2 1 1 2 2 2 4 3 4 3 2 3 2 1 2 1 4 3 4 4 4 2 4 6 5 8 8 7 6 5 6 6 6 6 6 7 7
29 24 15 17 30 28 31 40 35 22 8 5 11 10 9 6 3 7 9 12 14 15 14 10 9 11 13 12 11 15 14 10 11 10 8 8 6 11 15 10 11 16 13 8 4 2 6 4 3 3 2 2 1 1 1 3 2 3 3 2 3 2 1 1 2 2 2 4 4 3 6 4 4 4 4 2 7 9 7 6 5 5 6 6 6 7 6 6
21 14 8 16 29 27 33 39 25 11 6 8 12 10 9 6 3 7 12 15 14 14 12 9 9 10 11 12 11 13 14 11 12 9 7 7 4 9 16 10 9 15 14 9 5 3 5 4 1 2 2 1 1 0 4 1 2 1 1 2 2 3 4 3 2 2 1 3 4 4 3 3 5 6 5 7 8 6 5 6 5 4 5 6 6 6 6 6
14 6 6 22 31 29 34 29 13 8 8 10 11 8 8 6 4 8 14 16 11 8 9 10 10 10 11 11 10 12 11 9 11 8 5 7 5 7 14 10 9 14 11 7 5 3 3 3 3 0 3 1 1 2 5 5 4 3 2 2 1 2 3 1 2 2 2 2 3 3 2 4 5 4 6 8 5 2 4 5 3 2 2 2 2 3 5 6
10 4 6 25 35 33 30 16 7 9 9 10 11 7 7 5 4 9 13 15 9 1 4 10 11 10 11 11 10 10 9 8 10 8 4 8 8 5 7 8 11 13 9 6 4 3 2 3 5 3 1 2 2 1 1 3 5 5 4 6 6 4 4 2 3 3 3 2 3 3 4 5 5 2 2 2 1 2 3 4 2 2 2 4 4 3 2 4
9 4 10 31 41 36 22 9 9 11 9 10 8 4 6 6 7 11 11 12 9 1 2 8 10 10 9 10 12 11 10 8 10 9 6 8 10 5 4 7 14 14 10 6 4 2 3 5 5 3 1 1 2 1 1 3 2 3 3 5 7 6 6 6 6 4 2 2 1 1 4 6 5 3 3 2 1 0 1 2 3 4 2 2 4 4 4 2
7 5 15 36 44 32 16 9 11 9 6 7 5 2 5 7 8 9 9 10 8 3 4 7 9 10 8 9 11 12 12 9 10 13 9 8 8 6 7 10 14 14 9 6 5 3 3 5 4 3 1 2 2 1 2 3 1 1 4 4 5 6 6 5 5 4 3 3 2 2 5 5 4 3 3 4 5 4 3 4 5 6 4 4 5 5 4 2
5 5 10 28 39 26 10 10 14 12 8 10 10 5 3 5 8 10 10 9 7 5 6 7 9 9 7 8 10 13 14 9 9 11 8 7 5 3 7 14 14 13 9 6 8 5 3 4 5 5 2 2 3 2 3 3 2 1 2 1 1 3 5 4 2 3 2 5 6 5 6 5 4 4 4 6 6 6 6 4 5 5 5 4 4 4 4 4
4 5 5 13 26 18 7 5 8 11 12 13 14 10 6 5 5 8 12 9 5 5 6 5 8 8 6 7 7 10 13 7 5 8 6 6 2 4 4 15 14 11 7 7 10 7 4 5 6 6 6 5 5 5 4 4 3 1 0 3 4 4 7 5 2 3 4 6 7 5 6 6 4 4 5 6 6 6 8 4 4 5 5 4 4 4 5 5
3 6 5 6 9 8 5 1 2 8 12 12 10 10 11 7 1 2 9 8 4 6 6 4 7 8 7 9 9 9 13 7 4 6 6 6 3 4 1 9 10 7 8 13 13 7 4 4 6 8 9 9 7 4 6 8 7 5 6 7 8 7 7 5 3 4 5 5 5 6 7 10 9 5 5 6 6 6 7 5 4 5 5 5 5 5 5 5
1 5 8 8 6 8 7 4 4 7 12 14 10 9 13 11 5 2 2 2 5 8 6 5 8 9 9 12 10 9 14 10 5 7 7 5 3 2 3 4 5 4 9 13 10 6 4 4 7 10 10 7 6 6 10 12 9 10 10 9 9 8 8 7 5 7 6 4 7 8 8 12 13 9 8 8 7 6 6 7 7 6 6 6 5 5 5 5
1 1 3 3 5 12 12 12 14 13 16 17 11 10 15 14 12 8 0 1 7 8 6 5 9 13 14 14 11 8 10 9 6 8 8 5 5 4 4 6 5 3 4 8 5 4 5 4 6 8 8 6 5 7 11 11 9 10 12 12 12 10 10 11 11 11 8 6 9 10 11 15 15 10 10 9 7 7 7 7 5 3 4 5 6 6 6 5
1 1 2 3 1 9 11 11 14 14 17 18 11 11 17 17 16 12 4 4 8 7 7 8 10 14 14 13 10 9 10 11 8 8 7 6 7 6 3 3 3 4 2 6 2 2 3 4 5 7 6 7 5 6 9 10 8 8 10 12 12 12 13 14 15 16 14 13 14 14 15 17 15 10 9 8 8 8 6 4 4 3 5 6 7 6 5 5
1 1 1 1 1 5 7 7 9 9 12 14 11 10 15 18 19 13 7 9 12 9 9 12 13 13 13 13 10 9 12 13 10 8 9 10 8 5 3 4 3 1 1 5 2 2 1 4 5 7 5 6 7 8 8 8 8 7 8 9 9 10 12 14 14 14 13 13 15 15 14 16 14 9 7 6 5 4 3 4 5 6 6 6 6 5 5 6
1 2 1 1 1 4 9 9 9 10 9 11 12 10 12 17 19 14 7 7 12 13 12 14 14 11 10 12 12 11 11 10 11 13 14 14 12 8 5 5 9 7 3 5 5 2 2 3 3 6 5 6 7 8 5 5 4 1 5 8 11 12 11 12 12 11 10 10 11 11 12 14 12 7 7 8 5 5 5 7 7 6 5 6 6 6 6 7
1 2 2 0 1 2 8 10 9 10 9 11 13 11 11 14 17 16 7 1 4 10 11 13 15 10 9 13 14 11 9 9 10 11 11 10 10 8 5 8 13 13 7 6 5 3 5 5 3 6 6 5 4 8 7 8 5 3 9 14 16 14 12 10 9 10 12 11 9 10 13 14 9 4 8 12 9 7 7 7 6 6 7 7 7 6 7 8
Wind_Direction
232 218 210 207 203 202 203 199 199 201 200 198 195 194 196 196 197 197 194 194 195 194 194 195 196 200 201 203 204 205 210 210 215 212 213 231 230 229 227 214 203 234 334 317 344 4 356 341 338 343 324 310 199 216 172 180 290 53 223 213 227 233 217 210 185 140 126 137 149 170 171 146 148 147 128 169 112 121 145 111 85 68 66 68 101 123 134 142
235 218 208 206 203 202 201 199 199 200 198 196 194 193 193 194 194 195 194 193 193 194 193 192 194 196 195 198 197 198 201 206 218 218 224 238 235 230 231 227 212 209 346 335 359 12 358 335 338 337 319 272 224 168 178 178 148 196 238 218 225 236 219 355 49 88 106 146 155 167 178 159 149 155 142 160 145 134 149 141 125 99 85 94 115 125 134 144
237 220 207 205 203 201 200 199 199 199 197 195 194 191 191 192 193 193 193 193 192 191 192 191 191 191 192 192 190 191 188 195 227 232 231 237 238 232 230 226 206 179 1 339 339 357 343 331 330 323 304 275 244 181 203 172 169 218 232 231 243 316 82 24 47 54 44 132 150 162 187 175 146 148 152 171 160 160 181 166 153 142 143 151 135 134 140 149
235 228 212 206 203 201 198 199 199 199 197 195 194 191 190 189 190 192 192 194 193 191 190 189 189 189 189 186 185 180 165 182 237 237 235 231 233 230 224 221 203 187 247 330 278 319 326 324 321 315 305 292 250 199 206 172 174 203 193 231 290 346 55 36 44 42 26 107 148 152 176 175 146 142 156 176 167 178 204 183 176 167 153 158 155 146 150 156
230 230 220 209 204 200 197 198 198 198 197 195 193 191 189 188 189 190 191 194 195 194 191 189 190 189 188 182 175 164 141 221 234 231 234 226 226 224 215 209 194 190 194 214 235 335 326 306 299 310 305 288 259 210 207 194 180 228 231 227 2 351 41 41 39 33 3 31 134 147 168 159 135 136 169 193 187 181 213 186 182 171 151 157 162 152 156 163
226 227 224 210 202 199 197 196 197 198 197 194 193 191 190 188 187 188 189 191 193 196 195 191 190 189 188 176 167 164 159 219 189 216 217 212 215 213 203 192 182 186 180 170 172 25 322 283 267 268 257 276 259 234 219 199 172 226 248 186 47 25 52 14 31 14 345 39 130 149 147 117 123 146 191 211 192 138 50 30 161 154 150 155 157 156 161 171
223 222 221 210 201 198 196 195 196 197 196 193 191 190 189 187 186 187 187 188 191 194 196 194 190 187 182 167 165 178 204 230 299 321 199 197 202 199 193 188 183 179 164 156 152 141 267 257 252 235 241 263 261 252 225 181 167 225 247 123 56 54 75 20 48 347 349 47 94 133 116 121 158 169 196 210 148 114 83 36 62 117 139 149 153 162 170 175
222 219 220 213 202 197 194 194 195 194 195 192 190 189 187 186 184 183 183 184 187 190 194 194 189 184 173 163 163 194 219 225 259 334 185 187 188 187 185 185 184 175 167 167 163 172 235 249 244 234 245 252 275 296 244 171 171 229 242 122 123 89 97 78 95 17 18 40 349 117 135 139 163 147 192 202 150 121 110 68 76 110 131 147 154 165 172 176
221 217 218 215 201 194 194 192 192 192 192 190 189 188 186 184 181 179 179 180 183 186 190 189 186 178 169 166 168 198 214 217 230 316 179 183 177 178 181 181 184 180 177 179 176 184 215 242 238 216 225 260 280 305 288 220 191 224 215 125 134 120 118 130 123 109 71 37 5 129 153 114 102 77 211 210 166 126 114 95 106 124 136 150 157 167 170 175
216 210 215 215 197 190 192 190 189 188 188 188 187 187 184 181 179 177 175 176 181 185 186 185 181 171 169 179 188 202 210 204 215 226 177 181 171 169 176 181 184 181 178 180 185 197 213 240 260 210 203 276 278 284 297 287 300 257 157 107 112 121 124 177 130 125 143 127 155 207 169 103 89 146 228 209 159 131 117 115 133 143 154 160 160 171 172 176
212 208 213 214 195 186 189 187 186 185 185 185 185 186 182 178 176 173 171 175 180 183 185 181 172 170 174 194 198 201 178 183 203 205 187 182 171 167 175 183 183 179 172 167 203 219 220 241 279 275 177 278 286 273 288 269 320 346 122 100 111 130 118 160 128 143 176 129 195 232 133 96 98 195 231 175 147 144 138 138 153 161 172 173 166 171 175 179
210 208 211 209 191 183 185 184 182 182 182 182 184 185 180 177 174 170 169 175 181 182 182 176 169 171 180 214 210 194 173 178 190 190 187 180 173 170 176 181 181 183 176 162 207 224 223 240 274 279 218 252 274 267 287 259 323 336 165 132 147 152 144 178 152 164 194 154 195 229 1 193 179 216 211 151 148 152 150 155 166 174 173 176 173 168 173 181
209 208 210 204 187 180 182 180 180 179 180 180 181 182 178 174 172 169 168 174 179 179 178 174 171 175 197 227 202 172 175 182 180 177 173 173 174 178 183 184 182 189 189 182 205 219 219 232 258 287 273 268 260 250 284 296 334 307 246 220 156 170 201 185 156 154 166 149 202 165 291 236 213 216 193 149 158 152 166 175 171 184 175 171 176 167 174 182
207 208 208 199 184 179 178 177 178 178 177 177 178 179 175 172 170 167 167 171 174 174 175 175 174 180 246 210 171 167 169 165 172 169 164 167 166 173 185 189 185 188 196 203 214 215 214 226 249 296 284 258 264 258 269 351 299 233 231 253 186 181 185 174 155 155 158 298 227 134 216 261 237 200 166 148 161 155 182 190 171 186 183 174 170 169 180 186
205 204 202 192 179 176 176 173 176 176 175 173 173 174 172 170 169 165 166 166 167 170 172 174 177 187 251 210 155 158 152 142 164 165 164 164 158 162 179 182 182 181 188 203 214 220 213 211 228 262 254 241 257 280 202 168 238 221 204 230 212 202 158 159 171 175 166 199 205 166 219 265 339 127 138 150 163 161 185 192 178 184 183 181 174 173 182 184
200 198 195 186 176 174 172 170 173 173 170 168 168 169 167 166 164 160 161 161 161 166 163 168 187 212 241 201 155 155 150 138 166 167 161 162 162 164 166 166 172 176 185 199 205 213 197 186 198 249 234 221 182 234 246 202 211 223 203 188 198 205 171 161 212 211 149 119 193 222 255 247 117 126 131 146 171 178 195 194 185 185 184 183 178 181 183 180
194 192 189 181 174 171 168 168 170 167 165 163 159 158 158 158 156 152 153 154 153 156 154 162 189 219 264 156 152 170 162 138 157 163 154 157 168 163 151 144 154 161 164 184 191 187 177 180 156 283 231 211 183 202 223 214 208 219 209 204 203 192 175 160 212 231 154 142 196 217 249 256 197 158 156 175 182 186 211 211 195 186 182 183 180 185 188 188
189 187 182 175 169 167 166 166 165 163 160 155 151 150 148 146 147 145 143 142 137 140 152 169 176 202 231 172 173 178 161 147 151 155 153 159 166 158 149 143 146 146 140 143 170 179 178 177 159 186 205 198 205 203 202 207 192 188 192 210 224 196 185 177 178 179 173 195 211 188 226 258 232 171 171 194 184 184 209 219 214 194 181 184 185 186 190 195
187 185 178 170 165 164 162 161 161 159 153 146 142 138 132 130 134 139 143 146 144 149 180 183 176 191 192 174 180 165 155 151 146 145 151 156 159 159 154 148 147 143 146 154 183 191 178 143 172 204 197 194 207 208 216 228 208 195 187 197 221 202 186 168 137 145 152 185 221 190 209 240 237 210 186 194 189 191 206 213 223 213 194 191 186 188 191 194
186 182 172 166 164 162 159 159 159 155 149 141 135 129 126 131 133 142 157 172 186 182 157 166 180 219 66 147 143 135 146 148 139 144 157 158 156 159 155 145 152 159 161 159 175 188 173 165 193 208 198 196 201 213 231 253 311 278 190 189 210 204 185 104 86 321 90 148 224 219 225 236 241 235 203 183 182 194 203 207 215 214 208 202 191 191 192 198
180 174 166 163 162 160 159 159 157 156 152 145 141 136 151 158 154 168 169 189 212 213 142 154 184 226 93 132 135 131 138 143 136 145 159 161 159 159 164 161 162 184 176 155 145 136 174 194 198 199 209 210 194 209 233 247 321 320 239 175 210 212 195 71 76 248 43 81 230 227 238 245 240 243 219 166 172 202 202 197 203 206 209 209 202 200 196 197
175 169 163 160 160 159 159 158 157 156 152 149 150 155 178 174 232 161 158 156 203 227 196 154 183 205 115 137 150 143 135 141 145 143 156 163 170 173 170 172 171 176 167 146 130 139 188 208 202 196 204 209 186 201 217 230 292 316 339 177 222 204 133 71 47 80 103 172 277 268 244 252 247 248 235 177 182 208 201 196 199 199 204 208 205 203 199 198
172 167 161 159 158 158 158 157 156 155 154 156 163 178 174 178 128 142 144 83 164 225 227 160 179 182 139 151 166 152 140 152 155 152 166 169 179 180 164 177 180 158 154 160 158 165 178 198 216 213 184 160 128 179 183 193 258 266 312 315 265 103 103 14 297 106 356 182 27 353 307 269 265 268 258 214 206 209 198 201 202 197 204 207 201 194 193 197
171 166 161 157 157 157 157 155 155 159 162 163 168 171 161 155 138 144 139 57 144 216 214 169 176 168 151 158 176 175 149 154 158 155 172 176 168 164 168 183 179 156 167 177 169 170 171 173 246 334 152 157 136 118 158 172 221 234 237 240 292 10 105 79 140 148 14 13 135 358 321 283 242 238 249 232 222 219 203 201 205 207 210 206 202 199 194 194
166 162 159 156 157 157 155 154 159 168 166 164 173 172 151 153 156 155 133 91 147 279 179 175 180 166 153 149 172 180 142 149 165 156 169 182 174 159 177 194 185 170 177 180 172 174 185 197 337 139 150 163 158 170 187 177 207 239 212 204 232 358 99 109 134 143 53 308 234 124 309 280 229 214 229 220 214 221 209 202 209 212 211 204 206 209 202 195
160 158 157 158 157 155 154 157 169 167 159 170 181 174 158 169 182 183 134 106 155 159 163 171 171 166 158 151 170 173 154 161 157 154 165 186 194 172 183 190 185 175 174 177 184 170 160 356 78 154 152 156 170 203 198 174 188 235 230 218 191 120 106 134 147 134 148 251 285 112 177 267 283 242 248 222 202 212 208 206 214 211 205 203 208 212 203 197
158 157 158 159 158 157 157 161 166 163 161 178 178 177 190 191 196 213 129 114 177 163 160 166 170 174 167 162 172 171 164 150 99 155 168 181 191 168 190 172 113 191 170 156 189 171 116 107 96 138 133 147 178 216 200 173 173 218 290 297 181 139 135 151 148 161 196 170 349 8 162 274 296 271 280 237 179 206 209 211 225 222 213 211 213 213 206 203
158 158 159 161 161 162 160 156 162 168 175 173 173 182 201 192 192 229 124 156 175 141 150 159 146 167 162 166 180 175 129 139 132 166 167 164 169 64 182 176 159 168 147 140 182 238 114 151 159 147 138 165 176 184 223 175 170 225 298 23 73 129 147 148 148 182 151 64 318 270 160 256 276 253 268 352 179 225 224 213 222 224 220 219 216 212 210 211
158 159 162 162 162 164 159 159 164 166 167 168 171 179 176 168 170 191 161 175 155 121 146 141 136 163 157 168 186 177 128 148 153 143 144 148 167 46 174 189 164 137 82 103 158 250 145 179 173 154 157 174 151 79 355 142 160 210 163 70 55 49 72 105 147 174 107 85 242 233 179 199 278 260 233 230 222 230 230 220 219 217 213 213 211 207 205 205
160 160 162 160 162 167 158 160 167 158 161 168 168 159 145 144 166 161 182 186 147 145 154 144 166 170 162 168 184 175 153 146 114 121 142 156 161 297 278 201 146 122 66 49 86 81 317 209 247 144 166 160 125 93 47 97 117 153 136 79 60 50 48 43 48 98 102 247 239 226 193 186 267 265 202 198 216 210 223 235 232 208 199 196 189 182 180 177
162 161 162 162 164 166 154 158 167 159 162 167 158 147 137 137 203 171 171 166 129 143 153 150 159 165 169 172 176 176 162 118 125 141 155 165 160 180 185 170 127 104 103 72 65 45 51 71 49 15 300 153 112 86 32 46 74 97 130 113 84 33 43 33 7 77 200 242 250 297 251 182 231 254 223 250 258 152 178 225 209 145 156 152 130 127 134 136
163 163 164 164 162 162 158 159 163 160 162 162 152 146 157 155 197 185 153 150 151 164 170 162 162 169 176 174 171 175 159 131 154 158 157 165 172 184 190 183 157 136 166 152 114 109 66 79 125 31 313 240 131 108 48 11 33 94 145 134 122 103 69 75 255 173 227 249 243 308 352 222 234 250 265 280 290 253 187 172 160 156 150 139 129 119 110 114
163 163 163 164 159 161 163 158 160 158 155 156 151 161 182 158 183 185 154 167 172 164 166 167 167 168 171 171 169 169 156 146 167 164 157 163 167 186 207 205 183 178 177 146 139 149 84 356 179 104 342 263 176 151 132 154 147 151 165 141 144 161 132 193 208 195 234 266 270 258 253 259 269 253 243 252 264 267 202 157 145 140 146 150 148 139 139 164
162 162 162 163 159 157 160 160 162 156 147 151 159 172 170 167 185 183 170 181 161 153 158 160 161 161 169 176 167 165 161 152 163 162 157 163 169 189 205 204 192 185 145 136 164 174 165 235 205 147 164 185 184 207 147 149 151 177 177 137 156 183 168 189 182 197 221 253 317 293 219 196 212 248 238 234 247 256 141 139 128 122 144 140 141 159 175 201
161 161 159 159 157 155 162 165 163 154 147 155 175 171 172 174 183 185 178 166 148 153 154 152 155 160 173 177 162 169 172 148 162 164 163 175 185 188 190 196 191 184 157 155 178 176 171 206 307 282 265 177 169 300 5 118 133 202 159 113 170 206 151 149 180 181 172 67 306 258 252 220 212 275 281 258 245 228 188 177 173 203 203 159 171 205 202 212
156 157 156 156 159 160 167 168 163 155 154 164 166 177 192 184 183 183 167 151 156 154 147 150 158 161 170 172 164 172 172 151 164 169 175 186 195 191 189 194 188 188 184 161 150 160 164 206 325 325 337 56 103 311 351 101 157 173 132 150 194 167 113 114 270 2 103 288 261 180 253 280 272 289 278 248 240 241 222 206 205 224 215 184 200 211 202 207
154 155 151 155 165 167 168 168 161 159 166 178 170 182 198 195 187 168 146 139 148 149 147 154 167 167 169 171 175 174 165 155 170 174 177 184 198 195 191 194 186 193 196 159 131 178 145 103 337 12 39 13 339 352 14 23 112 114 149 186 168 96 78 111 238 336 90 252 256 163 211 258 227 269 279 231 227 248 239 216 216 225 212 208 223 219 210 203
151 151 140 154 169 169 167 165 161 161 174 184 183 193 195 194 179 158 146 139 147 155 157 160 166 175 177 172 175 171 162 162 176 178 175 180 202 190 185 193 186 192 196 159 133 178 130 98 345 10 30 282 323 87 94 0 32 123 175 171 118 141 212 150 186 244 228 247 275 224 219 230 196 223 309 261 223 245 244 203 192 215 216 221 233 233 221 192
142 142 135 160 169 168 164 162 159 164 181 185 192 198 189 178 156 156 150 145 152 160 163 164 161 171 182 174 165 165 168 172 173 176 180 182 207 188 181 186 180 187 193 169 154 180 138 124 247 329 330 253 355 123 179 179 5 61 54 36 66 148 177 173 194 219 216 243 273 263 231 247 225 211 238 243 228 229 219 187 189 223 225 223 226 224 211 185
142 136 149 161 166 165 161 159 159 176 187 192 196 186 171 172 165 161 154 148 152 162 166 168 163 164 174 168 157 163 173 171 168 180 191 174 186 195 185 181 168 175 180 156 145 157 123 111 151 309 337 163 175 237 186 170 167 155 114 126 124 97 120 160 262 205 163 208 258 272 264 263 254 216 219 236 232 176 152 151 178 270 304 283 263 216 193 182
151 129 146 160 162 161 157 157 171 184 193 197 195 180 165 163 147 158 157 147 144 179 175 163 164 166 164 160 160 166 169 167 171 182 189 175 179 204 197 173 154 160 163 146 143 155 128 103 130 144 198 188 213 278 188 186 179 171 173 170 169 149 118 128 255 219 167 194 224 238 263 267 269 309 311 256 129 132 140 132 174 276 327 330 338 329 231 197
154 133 147 158 161 160 160 167 181 188 198 188 185 168 149 145 146 159 162 150 144 135 160 159 167 168 162 162 163 163 165 170 176 181 192 189 183 192 199 155 148 157 159 144 153 171 112 97 108 127 164 199 263 293 290 284 225 167 208 189 171 169 153 169 213 209 189 226 190 220 267 267 261 298 336 336 1 269 179 156 222 259 277 287 303 302 294 291
145 115 136 154 163 166 167 171 180 195 202 176 168 120 142 151 149 154 158 155 151 144 150 159 167 169 168 164 160 161 166 170 181 187 188 182 180 186 182 160 151 157 156 139 158 162 91 101 105 87 44 342 321 303 306 304 277 205 239 208 178 186 175 173 185 159 166 205 160 211 255 261 273 303 329 315 312 299 262 219 226 253 270 268 270 265 258 278
117 96 119 153 166 177 186 176 180 188 182 180 183 167 146 158 154 157 163 161 155 152 150 155 163 168 168 161 158 165 169 172 186 191 183 171 187 228 180 165 155 160 169 168 170 171 141 137 125 110 100 9 352 307 285 266 234 267 268 187 187 176 139 122 129 124 181 206 178 199 245 251 270 314 334 315 313 305 285 244 210 238 269 277 274 252 216 197
111 99 73 150 169 189 215 181 186 185 175 182 185 169 151 154 158 166 163 153 143 144 140 141 149 143 137 144 142 159 175 180 173 178 175 161 174 323 188 166 161 169 173 153 151 156 158 161 149 147 167 183 194 211 212 179 174 291 288 159 181 172 150 149 147 156 214 215 182 198 250 251 263 329 333 308 299 296 293 275 216 233 259 274 281 254 208 191
125 128 109 133 171 212 237 299 235 187 173 177 182 174 165 155 52 166 154 151 154 142 126 121 132 124 134 150 139 158 184 184 127 156 166 140 119 330 248 157 154 159 143 137 142 137 131 175 178 179 192 193 187 172 132 126 142 193 203 182 184 190 177 158 138 177 206 222 210 218 243 254 259 269 285 286 271 264 280 281 257 246 242 250 262 248 210 189
58 147 153 149 168 207 228 263 243 191 177 179 179 177 173 161 143 152 136 155 166 145 127 130 143 146 160 163 152 166 183 171 128 149 151 114 98 26 14 70 85 102 128 138 145 124 113 195 194 191 206 192 147 136 142 140 157 188 196 191 189 190 176 170 198 209 188 204 237 231 233 252 255 243 243 257 251 249 263 262 253 238 220 224 231 217 188 176
18 140 176 167 173 188 200 208 204 192 181 182 179 169 173 167 162 170 99 88 158 150 131 143 167 172 171 167 159 157 168 166 157 160 148 117 123 114 40 38 43 15 118 134 140 109 123 194 198 188 212 207 155 144 152 156 172 184 189 195 194 188 180 186 211 218 196 204 238 233 229 244 251 242 238 238 224 229 242 236 225 205 195 202 201 189 177 184
41 53 291 324 245 195 194 186 186 187 181 182 182 172 174 174 173 172 136 123 164 170 156 160 178 179 172 170 162 155 168 175 179 174 145 123 138 133 91 77 56 348 65 121 119 41 118 179 185 171 207 233 204 166 158 167 181 186 193 199 193 189 191 196 209 217 212 217 233 235 237 247 250 240 237 232 214 219 225 183 151 175 204 201 194 190 191 205
51 37 292 329 4 189 179 153 164 184 183 183 188 182 179 181 177 170 153 159 170 175 172 172 176 176 172 173 172 177 186 179 168 162 137 128 149 154 139 150 143 31 74 128 138 338 121 173 170 156 189 240 213 184 173 171 177 191 203 203 192 188 199 209 216 218 216 222 236 244 251 257 253 242 244 248 220 188 156 154 184 218 218 195 189 197 206 220
100 354 328 189 90 165 169 164 173 182 180 187 191 183 184 188 181 169 165 182 177 175 180 174 167 165 168 177 185 191 188 169 155 160 155 152 166 171 158 157 151 148 157 152 154 168 169 176 154 140 172 233 207 178 152 109 94 281 243 216 199 192 198 209 214 212 208 217 236 248 253 254 252 250 262 260 227 178 191 208 218 229 210 186 194 211 222 232
103 345 329 160 55 184 175 167 178 186 184 191 191 181 183 191 180 167 165 266 183 177 179 167 159 159 171 187 196 190 171 154 150 157 155 148 152 148 134 148 154 155 158 153 152 153 148 150 139 145 177 236 189 148 116 78 62 275 240 215 205 203 202 205 213 215 208 205 214 229 239 247 250 246 258 261 244 213 219 221 219 226 216 203 208 217 226 236